AirNav   Everest Fuels
 
 469 users online  

0B1 Bethel Regional Airport
Bethel, Maine, USA

GOING TO BETHEL?


FAA INFORMATION EFFECTIVE 09 SEPTEMBER 2021

Location

FAA Identifier: 0B1
Lat/Long: 44-25-30.6000N 070-48-35.7000W
44-25.510000N 070-48.595000W
44.4251667,-70.8099167
(estimated)
Elevation: 674 ft. / 205.4 m (surveyed)
Variation: 17W (1985)
From city: 2 miles NW of BETHEL, ME
Time zone: UTC -4 (UTC -5 during Standard Time)
Zip code: 04217

Airport Operations

Airport use: Open to the public
Activation date: 12/2001
Control tower: no
ARTCC: BOSTON CENTER
FSS: BANGOR FLIGHT SERVICE STATION
NOTAMs facility: BGR (NOTAM-D service available)
Attendance: UNATNDD
Wind indicator: lighted, LGTD WINDSOCK AND APN LGTS ON CONSLY AT NGT.
Segmented circle: yes
Lights: ACTVT REIL RWY 32; MIRL RWY 14/32- CTAF.
Beacon: white-green (lighted land airport)
Operates sunset to sunrise.

Airport Communications

CTAF: 122.9
WX AWOS-AV: 122.9 (207-512-2516)
PORTLAND APPROACH: 125.5
PORTLAND DEPARTURE: 125.5
WX ASOS at BML (18 nm NW): 135.175 (603-449-3328)
  • APCH/DEP SVC PRVDD BY BOSTON ARTCC ON FREQS 128.2/263.05 (WATERBORO RCAG) WHEN PORTLAND APCH CTL CLSD.

Nearby radio navigation aids

NDB name  Hdg/Dist  Freq  Var  ID
RANGELEY203/30.722118WRQM .-. --.- --
MAHN101/37.738617WGMA --. -- .-

Airport Services

Fuel available: 100LL
100LL:SELF-SERVE AVBL 24 HRS WITH CREDIT CARD.
Parking: tiedowns
Airframe service: NONE
Powerplant service: NONE
Bottled oxygen: NONE
Bulk oxygen: NONE

Runway Information

Runway 14/32

Dimensions: 3818 x 75 ft. / 1164 x 23 m
Surface: asphalt, in good condition
Runway edge lights: medium intensity
RUNWAY 14  RUNWAY 32
Latitude: 44-25.694830N44-25.323515N
Longitude: 070-48.948492W070-48.241258W
Elevation: 674.0 ft.656.2 ft.
Traffic pattern: leftleft
Markings: basic, in good conditionnonprecision, in good condition
Runway end identifier lights: yes
Touchdown point: yes, no lightsyes, no lights

Airport Ownership and Management from official FAA records

Ownership: Publicly-owned
Owner: TOWN OF BETHEL
PO BOX 1660
BETHEL, ME 04217
Phone 207-824-2669
Manager: LORETTA POWERS
TOWN OF BETHEL, PO BOX 1660
BETHEL, ME 04217
Phone 207-824-2669
EMERG (POLICE FONE) 1-800-733-1421 OR AMGR 207-739-9619.

Airport Operational Statistics

Aircraft based on the field: 16
Single engine airplanes: 15
Multi engine airplanes: 1
    
Aircraft operations: avg 91/week *
53% local general aviation
42% transient general aviation
5% military
* for 12-month period ending 05 August 2019

Additional Remarks

A58-14 30-60 FT TREES 40-185 FT FM END OF RWY 212 FT RT.
TURKEYS & GEESE ON OR INVOF ARPT.
FOR CD CTC PORTLAND APCH AT 207-874-7320, WHEN APCH CLSD CTC BOSTON ARTCC AT 603-879-6859.
COLD TEMPERATURE AIRPORT. ALTITUDE CORRECTION REQUIRED AT OR BELOW -23C.
UNLGTD MTUS TRRN.
FOR RWY CONDS OR OTHER INFO, CTC ARPT INFO LINE 207-512-5552.
PWRD PRCHT ACTVTY OCNLY IN TRML AREA.
NO FEES FOR PRKG, TIE-DOWN, OVNGT ELECL A/C HOOK-UP.
ARPT SFC CONDS UNMON BTN 0200-1300Z DLY.
ACTVT AWOS-AV VIA PHONE (207-512-2516) OR KEY CTAF 3 TIMES.
UAS WI 3 NM RDS OF ARPT SFC-400 FT AGL DLY, SR-SS.

Instrument Procedures

NOTE: All procedures below are presented as PDF files. If you need a reader for these files, you should download the free Adobe Reader.

NOT FOR NAVIGATION. Please procure official charts for flight.
FAA instrument procedures published for use from 09 September 2021 at 0901Z to 07 October 2021 at 0900Z.

 
IAPs - Instrument Approach Procedures
RNAV (GPS) Y RWY 32   download (219KB)
NOTE: Special Take-Off Minimums/Departure Procedures apply   download (388KB)

Other nearby airports with instrument procedures:

KBML - Berlin Regional Airport (18 nm NW)
81B - Oxford County Regional Airport (21 nm SE)
KIZG - Eastern Slopes Regional Airport (27 nm S)
KHIE - Mount Washington Regional Airport (32 nm W)
KLEW - Auburn/Lewiston Municipal Airport (32 nm SE)
 
Loc | Ops | Rwys | IFR | FBO | Links
Com | Nav | Svcs | Stats | Notes
Area around 0B1 (Bethel Regional Airport)
 
Road maps at: MapQuest Bing Google
 
Aerial photo
WARNING: Photo may not be current or correct
Aerial photo of 0B1 (Bethel Regional Airport)
Photo by Pete Chaisson Portland Flight Services
Photo taken 15-Aug-2014
looking southeast.

Do you have a better or more recent aerial photo of Bethel Regional Airport that you would like to share? If so, please send us your photo.

 
Sectional chart

 
Airport distance calculator
Flying to Bethel Regional Airport? Find the distance to fly.

From to 0B1

Sunrise and sunset
Times for 21-Sep-2021
 Local
(UTC-4)
 Zulu
(UTC)
Morning civil twilight06:0110:01
Sunrise06:3010:30
Sunset18:4322:43
Evening civil twilight19:1223:12

Current date and time
Zulu (UTC)  21-Sep-2021 09:42:38
Local (UTC-4)  21-Sep-2021 05:42:38
 
METAR
KBML 
19nm NW 
210852Z AUTO 00000KT 1/4SM FG VV001 07/06 A3039 RMK AO2 SLP294 T00670061 50002
KMWN 
22nm SW 
210851Z 20018KT 80SM BKN/// FEW/// FEW100 FEW140 SCT220 10/M17 RMK TPS LWR BKN047 PTCHY VLY FG W-E
KIZG 
27nm S 
210854Z AUTO 00000KT 10SM OVC038 07/06 A3042 RMK AO2 SLP302 T00670061 55005
KCWN 
29nm SW 
210858Z AUTO M M M M M M RMK AO2 SLPNO RVRNO $
KHIE 
32nm W 
210901Z AUTO 00000KT 3/4SM BR OVC001 04/04 A3039 RMK AO2 T00440044
K8B0 
33nm N 
210915Z AUTO 00000KT 10SM CLR 10/09 A3041 RMK AO2
KLEW 
33nm SE 
210914Z AUTO 00000KT 1/2SM FG OVC001 07/07 A3043 RMK AO2
TAF
KHIE 
32nm W 
210718Z 2107/2206 17005KT P6SM SCT250 FM210900 VRB03KT 1/2SM FG BKN002 FM211200 17005KT P6SM SCT150
NOTAMs
Click for the latest NOTAMs
NOTAMs are issued by the DoD/FAA and will open in a separate window not controlled by AirNav.

 

 
 

FBO, Fuel Providers, and Aircraft Ground Support

  
 Business Name 
 
 Contact 
 
 Services / Description 
 
Fuel Prices
 
Comments
  
Town of Bethel (self-serve fuel) 207-512-5552
[web site]
[email]
Aviation fuel, Aircraft parking (ramp or tiedown), Passenger terminal and lounge, Rental cars delivered, Courtesy transportation, Pilots lounge / snooze room, ...

More info about Town of Bethel (self-serve fuel)
independent
100LL
SS $4.55 
GUARANTEED
 
   1 read write
SS=Self service
Update Fuel Prices
 

Would you like to see your business listed on this page?

 If your business provides an interesting product or service to pilots, flight crews, aircraft, or users of the Bethel Regional Airport, you should consider listing it here.  To start the listing process, click on the button below
 
Add a business
 

Other Pages about Bethel Regional Airport

www.bethelregionalairport.com
www.bethelmaine.org/...
www.exploremaine.org/...
 
Update a link
 
Copyright © AirNav, LLC. All rights reserved. Privacy Policy  Contact